South Bend, IN

12:46 AM EST on February 22, 2018 (GMT -0500)
South Bend Regional

Weather History for KSBN - July, 2013

Change the Weather History Date:

Sunday, July 28, 2013

  Actual Average Record
Temperature  
Mean Temperature 60 °F 73 °F  
Max Temperature 67 °F 82 °F 100 °F (1983)
Min Temperature 52 °F 63 °F 47 °F (1925)
Degree Days  
Heating Degree Days 5 0  
Month to date heating degree days 12 0  
Since 1 June heating degree days 49 44  
Since 1 July heating degree days 12 0  
Cooling Degree Days 0 8  
Month to date cooling degree days 228 224  
Year to date cooling degree days 489 445  
Since 1 June cooling degree days 393 389  
Growing Degree Days 9 (Base 50)    
Moisture  
Dew Point 48 °F    
Average Humidity 65    
Maximum Humidity 83    
Minimum Humidity 45    
Precipitation  
Precipitation T in 0.13 in 1.78 in (1971)
Month to date precipitation 3.02 3.61  
Year to date precipitation 23.75 21.12  
Snow  
Snow 0.00 in - - ()
Month to date snowfall 0.0  
Since 1 June snowfall 0.0  
Snow Depth 0.00 in    
Sea Level Pressure  
Sea Level Pressure 29.94 in    
Wind  
Wind Speed 10 mph (WSW)    
Max Wind Speed 18 mph    
Max Gust Speed 23 mph    
Visibility 10 miles    
Events Rain    
T = Trace of Precipitation, MM = Missing Value Source: NWS Daily Summary

Daily Weather History Graph

Daily Weather History Graph

Search for Another Location

Airport or City:

Trip Planner

Search our weather history database for the weather conditions in past years. The results will help you decide how hot, cold, wet, or windy it might be!

Date:

Astronomy

Jul. 28, 2013 Rise Set
Actual Time 6:35 AM EDT 9:07 PM EDT
Civil Twilight 6:04 AM EDT 9:38 PM EDT
Nautical Twilight 5:24 AM EDT 10:18 PM EDT
Astronomical Twilight 4:39 AM EDT 11:02 PM EDT
Moon No Moon Rise 1:24 PM EDT (7/28)
Length of Visible Light 15h 34m
Length of Day
14h 31m
Waning Gibbous, 61% of the Moon is Illuminated
Jul 28
Waning Gibbous
Jul 29
Last Quarter
Aug 6
New
Aug 14
First Quarter
Aug 20
Full

Hourly Weather History & Observations

Time (EDT) Temp. Dew Point Humidity Pressure Visibility Wind Dir Wind Speed Gust Speed Precip Events Conditions
12:54 AM 57.9 °F 46.9 °F 67% 29.89 in 10.0 mi SW 10.4 mph - N/A   Mostly Cloudy
1:54 AM 57.0 °F 46.0 °F 67% 29.89 in 10.0 mi SW 10.4 mph - N/A   Overcast
2:54 AM 57.0 °F 46.0 °F 67% 29.89 in 10.0 mi SW 10.4 mph - N/A   Overcast
3:54 AM 55.9 °F 46.9 °F 72% 29.88 in 10.0 mi SW 12.7 mph - N/A   Mostly Cloudy
4:54 AM 53.1 °F 46.9 °F 80% 29.88 in 10.0 mi WSW 8.1 mph - N/A   Scattered Clouds
5:54 AM 52.0 °F 46.9 °F 83% 29.88 in 10.0 mi SW 10.4 mph - N/A   Partly Cloudy
6:54 AM 52.0 °F 46.9 °F 83% 29.91 in 10.0 mi SSW 9.2 mph - N/A   Mostly Cloudy
7:54 AM 53.1 °F 46.9 °F 80% 29.91 in 10.0 mi SW 12.7 mph - N/A   Overcast
8:54 AM 55.0 °F 46.9 °F 74% 29.92 in 10.0 mi WSW 10.4 mph - N/A   Overcast
9:54 AM 57.9 °F 48.0 °F 70% 29.92 in 10.0 mi WSW 11.5 mph - N/A   Overcast
10:36 AM 60.8 °F 50.0 °F 68% 29.92 in 10.0 mi WSW 12.7 mph 23.0 mph 0.00 in Rain Light Rain
10:54 AM 60.1 °F 48.9 °F 67% 29.92 in 10.0 mi West 13.8 mph - 0.00 in   Overcast
11:54 AM 61.0 °F 48.9 °F 64% 29.92 in 10.0 mi West 12.7 mph - 0.00 in   Overcast
12:01 PM 62.6 °F 48.2 °F 59% 29.92 in 10.0 mi West 15.0 mph 19.6 mph N/A   Overcast
12:54 PM 66.0 °F 48.0 °F 52% 29.92 in 10.0 mi West 12.7 mph 21.9 mph N/A   Scattered Clouds
1:20 PM 62.6 °F 46.4 °F 55% 29.94 in 10.0 mi WNW 15.0 mph 21.9 mph N/A   Overcast
1:35 PM 64.4 °F 48.2 °F 56% 29.94 in 10.0 mi West 12.7 mph - N/A   Mostly Cloudy
1:54 PM 63.0 °F 48.0 °F 58% 29.94 in 10.0 mi West 15.0 mph 20.7 mph N/A   Overcast
2:54 PM 62.1 °F 48.0 °F 60% 29.95 in 10.0 mi West 11.5 mph - N/A   Overcast
3:54 PM 63.0 °F 48.9 °F 60% 29.96 in 10.0 mi West 8.1 mph - N/A   Overcast
4:54 PM 66.0 °F 48.9 °F 54% 29.97 in 10.0 mi WNW 12.7 mph - N/A   Overcast
5:54 PM 66.9 °F 48.0 °F 51% 29.98 in 10.0 mi West 11.5 mph - N/A   Scattered Clouds
6:54 PM 66.0 °F 48.0 °F 52% 29.98 in 10.0 mi WNW 12.7 mph - N/A   Partly Cloudy
7:54 PM 64.9 °F 48.9 °F 56% 30.00 in 10.0 mi WNW 6.9 mph - N/A   Clear
8:54 PM 61.0 °F 50.0 °F 67% 30.01 in 10.0 mi NW 4.6 mph - N/A   Clear
9:54 PM 57.0 °F 50.0 °F 77% 30.01 in 10.0 mi WSW 3.5 mph - N/A   Clear
10:54 PM 55.0 °F 50.0 °F 83% 30.02 in 10.0 mi Calm Calm - N/A   Clear
11:54 PM 55.9 °F 50.0 °F 80% 30.02 in 10.0 mi SW 6.9 mph - N/A   Clear